Shelton, WA

6:28 AM PDT on May 30, 2017 (GMT -0700)
Sanderson

Weather History for KSHN - March, 2013

Change the Weather History Date:

Wednesday, March 6, 2013

  Actual Average Record
Temperature  
Mean Temperature 41 °F -  
Max Temperature 45 °F 53 °F 67 °F (1965)
Min Temperature 37 °F 35 °F 23 °F (1956)
Degree Days  
Heating Degree Days 24    
Moisture  
Dew Point 39 °F    
Average Humidity 93    
Maximum Humidity 100    
Minimum Humidity 81    
Precipitation  
Precipitation 0.15 in - - ()
Sea Level Pressure  
Sea Level Pressure 29.71 in    
Wind  
Wind Speed 2 mph (SSW)    
Max Wind Speed 8 mph    
Max Gust Speed -    
Visibility 10 miles    
Events Rain    
Averages and records for this station are not official NWS values.
T = Trace of Precipitation, MM = Missing Value Source: NWS Daily Summary

Daily Weather History Graph

Daily Weather History Graph

Search for Another Location

Airport or City:

Trip Planner

Search our weather history database for the weather conditions in past years. The results will help you decide how hot, cold, wet, or windy it might be!

Date:

Astronomy

Mar. 06, 2013 Rise Set
Actual Time 6:42 AM PST 6:05 PM PST
Civil Twilight 6:12 AM PST 6:36 PM PST
Nautical Twilight 5:36 AM PST 7:11 PM PST
Astronomical Twilight 5:00 AM PST 7:47 PM PST
Moon 3:13 AM PST (3/6) 12:37 PM PST (3/6)
Length of Visible Light 12h 24m
Length of Day
11h 23m
Waning Crescent, 29% of the Moon is Illuminated
Mar 6
Waning Crescent
Mar 11
New
Mar 19
First Quarter
Mar 27
Full
Apr 2
Last Quarter

Hourly Weather History & Observations

Time (PST) Temp. Windchill Dew Point Humidity Pressure Visibility Wind Dir Wind Speed Gust Speed Precip Events Conditions
12:53 AM 39.9 °F - 39.0 °F 97% 29.69 in 10.0 mi Calm Calm - N/A   Overcast
1:53 AM 39.0 °F - 37.9 °F 96% 29.67 in 10.0 mi Calm Calm - N/A   Overcast
2:53 AM 39.0 °F - 37.9 °F 96% 29.63 in 10.0 mi Calm Calm - N/A   Overcast
3:53 AM 39.0 °F - 37.0 °F 93% 29.61 in 10.0 mi Calm Calm - N/A   Overcast
4:53 AM 37.9 °F - 37.9 °F 100% 29.60 in 10.0 mi Calm Calm - N/A   Overcast
5:53 AM 39.9 °F 37.8 °F 37.9 °F 93% 29.58 in 10.0 mi North 3.5 mph - N/A   Overcast
6:53 AM 39.0 °F - 37.9 °F 96% 29.58 in 10.0 mi Calm Calm - 0.00 in Rain Light Rain
7:53 AM 39.0 °F - 37.9 °F 96% 29.59 in 10.0 mi Calm Calm - 0.00 in Rain Light Rain
8:53 AM 41.0 °F - 39.0 °F 93% 29.60 in 10.0 mi Calm Calm - 0.02 in Rain Light Rain
9:53 AM 43.0 °F - 39.0 °F 86% 29.60 in 10.0 mi Calm Calm - 0.01 in   Overcast
10:53 AM 44.1 °F - 42.1 °F 93% 29.62 in 10.0 mi Calm Calm - N/A   Overcast
11:39 AM 44.6 °F - 41.0 °F 87% 29.62 in 10.0 mi Calm Calm - N/A   Overcast
11:53 AM 45.0 °F - 39.9 °F 82% 29.64 in 10.0 mi Calm Calm - 0.00 in Rain Light Rain
12:30 PM 44.6 °F 42.2 °F 41.0 °F 87% 29.64 in 10.0 mi East 4.6 mph - 0.00 in   Overcast
12:49 PM 44.6 °F 43.1 °F 39.2 °F 81% 29.64 in 10.0 mi East 3.5 mph - 0.00 in Rain Light Rain
12:53 PM 44.1 °F 40.8 °F 41.0 °F 89% 29.65 in 10.0 mi SE 5.8 mph - 0.00 in Rain Light Rain
1:07 PM 42.8 °F 40.1 °F 41.0 °F 93% 29.65 in 10.0 mi SE 4.6 mph - 0.01 in Rain Light Rain
1:20 PM 42.8 °F 41.1 °F 41.0 °F 93% 29.65 in 10.0 mi SSE 3.5 mph - 0.02 in Rain Light Rain
1:53 PM 42.8 °F 41.1 °F 41.0 °F 93% 29.66 in 10.0 mi SSW 3.5 mph - N/A Rain Light Rain
2:53 PM 43.0 °F 40.3 °F 41.0 °F 93% 29.70 in 10.0 mi SSW 4.6 mph - 0.02 in Rain Light Rain
3:53 PM 43.0 °F 41.3 °F 41.0 °F 93% 29.71 in 10.0 mi South 3.5 mph - 0.02 in Rain Light Rain
4:53 PM 43.0 °F 38.8 °F 41.0 °F 93% 29.73 in 10.0 mi SW 6.9 mph - 0.02 in Rain Light Rain
5:53 PM 42.1 °F 37.1 °F 39.9 °F 92% 29.75 in 10.0 mi SW 8.1 mph - 0.01 in Rain Light Rain
6:53 PM 41.0 °F 35.8 °F 39.9 °F 96% 29.78 in 10.0 mi SSW 8.1 mph - 0.02 in Rain Light Rain
7:03 PM 41.0 °F 35.8 °F 39.2 °F 93% 29.77 in 10.0 mi SSW 8.1 mph - 0.01 in Rain Light Rain
7:53 PM 41.0 °F 35.8 °F 39.0 °F 93% 29.81 in 10.0 mi SW 8.1 mph - 0.02 in Rain Light Rain
8:10 PM 41.0 °F 37.1 °F 39.2 °F 93% 29.80 in 10.0 mi SW 5.8 mph - 0.00 in Rain Light Rain
8:29 PM 41.0 °F 38.0 °F 39.2 °F 93% 29.81 in 10.0 mi SSW 4.6 mph - 0.01 in   Overcast
8:49 PM 39.2 °F 35.9 °F 39.2 °F 100% 29.81 in 10.0 mi SSW 4.6 mph - 0.01 in   Overcast
8:53 PM 39.9 °F 36.7 °F 39.0 °F 97% 29.83 in 10.0 mi SSW 4.6 mph - 0.01 in   Overcast
9:53 PM 39.9 °F 37.8 °F 39.0 °F 97% 29.85 in 10.0 mi South 3.5 mph - N/A   Overcast
10:08 PM 39.2 °F - 39.2 °F 100% 29.84 in 10.0 mi Calm Calm - N/A   Overcast
10:24 PM 39.2 °F - 39.2 °F 100% 29.85 in 10.0 mi Calm Calm - N/A   Overcast
10:53 PM 41.0 °F - 39.0 °F 93% 29.87 in 10.0 mi Calm Calm - 0.00 in Rain Light Rain
11:02 PM 39.2 °F - 39.2 °F 100% 29.86 in 10.0 mi Calm Calm - 0.00 in Rain Light Rain
11:53 PM 41.0 °F - 39.9 °F 96% 29.89 in 10.0 mi Calm Calm - 0.00 in Rain Light Rain